Home   Weather   Villavicencio   Past weeks

Flag for Colombia Past Weather in Villavicencio, Colombia — Yesterday and Last 2 Weeks

Now
55 °F

Passing clouds.


Feels Like: 55 °F
Forecast: 63 / 89 °F
Wind: 2 mph from North

Location: Bogota / Eldorado

Current Time: Dec 8, 2016 at 9:12:19 pm

Latest Report: Dec 8, 2016 at 9:00 pm


Visibility: 5 mi

Pressure: 30.35 "Hg

Humidity: 88%

Dew Point: 52 °F

Location of VillavicencioLocation

Past Weather in Villavicencio — Graph

°F

Villavicencio Temperature Yesterday

Maximum temperature yesterday: 66 °F (at 2:00 pm)
Minimum temperature yesterday: 48 °F (at 1:00 am)
Average temperature yesterday: 57 °F

High & Low Weather Summary for the Past Weeks

 TemperatureHumidityPressure
High66 °F (Nov 24, 11:00 am)100% (Nov 24, 5:00 am)30.39 "Hg (Nov 24, 5:00 am)
Low43 °F (Dec 6, 6:00 am)46% (Dec 7, 4:00 pm)30.19 "Hg (Nov 28, 4:00 pm)
Average56 °F82%30.30 "Hg
* Reported Nov 23 8:00 pm — Dec 8 8:00 pm, Villavicencio, Weather by CustomWeather, © 2016

Note: Actual official high and low records may vary slightly from our data, if they occured in-between our weather recording intervals... More about our weather records

Advertising

Villavicencio Weather History for the Previous 24 Hours

Scroll right to see more
 ConditionsComfort  
Time TempWeatherWind HumidityBarometerVisibility
8:00 pm
Thu, Dec 8
55 °FPassing clouds.5 mph88%30.31 "HgN/A
7:00 pm55 °FPassing clouds.2 mph88%30.27 "HgN/A
6:00 pm55 °FPassing clouds.9 mph88%30.24 "HgN/A
5:00 pm59 °FScattered clouds.8 mph77%30.22 "HgN/A
4:00 pm61 °FScattered clouds.6 mph77%30.22 "HgN/A
3:00 pm61 °FPartly sunny.10 mph77%30.24 "HgN/A
2:00 pm64 °FPartly sunny.6 mph49%30.27 "HgN/A
1:00 pm66 °FPartly sunny.5 mph46%30.30 "HgN/A
12:00 pm64 °FPartly sunny.6 mph52%30.32 "HgN/A
11:00 am63 °FPartly sunny.8 mph56%30.35 "HgN/A
10:03 am63 °FScattered clouds.6 mph56%30.35 "HgN/A
10:00 am63 °FScattered clouds.5 mph56%30.36 "HgN/A
9:00 am61 °FPassing clouds.5 mph59%30.37 "HgN/A
8:00 am57 °FPassing clouds.5 mph77%30.38 "HgN/A
7:00 am52 °FPassing clouds.5 mph88%30.35 "HgN/A
6:00 am46 °FFog.6 mph93%30.32 "HgN/A
5:00 am48 °FFog.3 mph94%30.31 "HgN/A
4:00 am48 °FFog.2 mph94%30.30 "HgN/A
3:00 am48 °FPassing clouds.3 mph94%30.30 "HgN/A
2:00 am48 °FPassing clouds.3 mph94%30.31 "HgN/A
1:00 am48 °FPassing clouds.2 mph94%30.33 "HgN/A
12:00 am50 °FPassing clouds.5 mph94%30.36 "HgN/A
11:00 pm
Wed, Dec 7
52 °FPassing clouds.5 mph88%30.35 "Hg6 mi
10:00 pm52 °FPassing clouds.2 mph88%30.36 "HgN/A
9:00 pm55 °FPassing clouds.5 mph82%30.36 "HgN/A
Weather by CustomWeather, © 2016

See weather overviewHow to use our weather pages